Seattle, WA
on Wednesday, November 28, 2012

Wednesday
Previous Day Next Day
Daily Summary
 ActualAverageRecord
Temperature
Mean Temperature °F 43°F  
Max Temperature 49°F 48°F 59°F (1999)
Min Temperature 36°F 37°F 17°F (1952)
Degree Days
Heating Degree Days 22 22  
Month to date heating degree days 508 541  
Since 1 July heating degree days 1001 1138  
Cooling Degree Days 0 0  
Month to date cooling degree days 0 0  
Year to date cooling degree days 177 189  
Moisture
Dew Point 38°F   
Average Humidity 82    
Maximum Humidity 92    
Minimum Humidity 71    
Precipitation
Precipitation 0.11 in 0.21 in 1.55 in (1995)
Month to date precipitation 6.82 6.12  
Year to date precipitation 39.95 31.69  
Snow
Snow 0.00 in in T in (2006)
Month to date snowfall 0.0  
Since 1 July snowfall 0.0  
Snow Depth 0.00 in   
Wind
Wind Speed 7 mph   
Max Wind Speed 15 mph   
Max Gust Speed 17 mph   
Visibility 10 miles   
Events Rain   

Key: T is trace of precipitation, MM is missing value
Source: NWS Daily Summary
Time(PST)TemperatureDew PointHumidity Pressure Visibility Wind DirectionWind SpeedGust SpeedPrecipitationEvents Conditions
12:53 AM 41.0°F 36.0°F 82% 29.90 in 10.0 miles NNE 6.9 mph - N/A   Mostly Cloudy
1:53 AM 36.0°F 32.0°F 86% 29.89 in 10.0 miles SE 3.5 mph - N/A   Scattered Clouds
2:53 AM 37.9°F 35.1°F 89% 29.87 in 10.0 miles ESE 4.6 mph - N/A   Scattered Clouds
3:53 AM 37.4°F 35.6°F 93% 29.81 in 10.0 miles North 8.1 mph - N/A   Mostly Cloudy
4:53 AM 39.0°F 36.0°F 89% 29.82 in 10.0 miles NNW 6.9 mph - N/A   Mostly Cloudy
5:53 AM 39.0°F 36.0°F 89% 29.81 in 10.0 miles North 5.8 mph - N/A   Mostly Cloudy
6:53 AM 39.9°F 35.1°F 83% 29.77 in 10.0 miles NNE 8.1 mph - N/A   Mostly Cloudy
7:53 AM 39.9°F 36.0°F 86% 29.75 in 10.0 miles North 5.8 mph - N/A   Overcast
8:53 AM 42.1°F 37.0°F 82% 29.76 in 10.0 miles North 3.5 mph - N/A   Overcast
9:53 AM 43.0°F 37.0°F 80% 29.70 in 10.0 miles NNE 8.1 mph - N/A   Overcast
10:53 AM 45.0°F 37.0°F 74% 29.70 in 10.0 miles West 5.8 mph - N/A   Overcast
11:53 AM 46.0°F 39.0°F 76% 29.68 in 10.0 miles Calm Calm - 0.00 in   Overcast
12:53 PM 46.0°F 39.9°F 79% 29.65 in 10.0 miles ENE 9.2 mph - 0.01 in Rain Light Rain
1:53 PM 46.0°F 39.9°F 79% 29.66 in 7.0 miles SSE 4.6 mph - 0.03 in Rain Light Rain
2:53 PM 46.9°F 39.9°F 77% 29.62 in 8.0 miles East 11.5 mph - 0.04 in Rain Light Rain
3:53 PM 48.0°F 39.9°F 74% 29.65 in 10.0 miles ESE 8.1 mph - 0.01 in Rain Light Rain
4:53 PM 48.0°F 39.9°F 74% 29.65 in 10.0 miles East 12.7 mph - 0.01 in   Mostly Cloudy
5:53 PM 46.0°F 39.9°F 79% 29.66 in 10.0 miles South 9.2 mph - N/A   Overcast
6:53 PM 45.0°F 42.1°F 90% 29.69 in 10.0 miles SSE 6.9 mph - 0.00 in   Overcast
7:53 PM 46.9°F 41.0°F 80% 29.71 in 10.0 miles ESE 6.9 mph - 0.01 in   Overcast
8:53 PM 46.0°F 41.0°F 83% 29.73 in 10.0 miles South 3.5 mph - N/A   Mostly Cloudy
9:53 PM 45.0°F 39.9°F 82% 29.75 in 10.0 miles Calm Calm - N/A   Scattered Clouds
10:53 PM 46.9°F 39.9°F 77% 29.75 in 10.0 miles SE 5.8 mph - N/A   Mostly Cloudy
11:53 PM 46.9°F 39.0°F 74% 29.74 in 10.0 miles ESE 10.4 mph - 0.00 in   Overcast
Moon Phase
Nov. 28 Dec. 06 Dec. 13 Dec. 20 Dec. 28
Sunrise:07:32 AM (PST) Moon Rise:04:40 PM (PST)11/28
Sunset:04:21 PM (PST) Moon Set:07:35 AM (PST)11/28

Copyright © 2014 The Weather Underground, Inc.